Mason City, IA

10:45 PM CDT on April 24, 2017 (GMT -0500)
Mason City Municipal

Weather History for KMCW - March, 2013

Change the Weather History Date:

Sunday, March 31, 2013

  Actual Average Record
Temperature  
Mean Temperature 33 °F 40 °F  
Max Temperature 41 °F 50 °F 83 °F (1978)
Min Temperature 25 °F 29 °F 2 °F (1923)
Degree Days  
Heating Degree Days 32 25  
Month to date heating degree days 1237 993  
Since 1 July heating degree days 6798 6845  
Cooling Degree Days 0 0  
Month to date cooling degree days 0 0  
Year to date cooling degree days 0 0  
Moisture  
Dew Point 29 °F    
Average Humidity 77    
Maximum Humidity 100    
Minimum Humidity 54    
Precipitation  
Precipitation 0.00 in 0.10 in 1.20 in (1993)
Month to date precipitation 3.14 2.23  
Year to date precipitation 4.81 4.05  
Snow  
Snow 0.00 in 0.20 in 7.50 in (1929)
Month to date snowfall 23.6 6.0  
Since 1 July snowfall 45.6 38.5  
Snow Depth T in    
Sea Level Pressure  
Sea Level Pressure 29.92 in    
Wind  
Wind Speed 19 mph (NW)    
Max Wind Speed 32 mph    
Max Gust Speed 39 mph    
Visibility 5 miles    
Events Fog    
T = Trace of Precipitation, MM = Missing Value Source: NWS Daily Summary

Daily Weather History Graph

Daily Weather History Graph

Search for Another Location

Airport or City:

Trip Planner

Search our weather history database for the weather conditions in past years. The results will help you decide how hot, cold, wet, or windy it might be!

Date:

Astronomy

Mar. 31, 2013 Rise Set
Actual Time 6:56 AM CDT 7:38 PM CDT
Civil Twilight 6:27 AM CDT 8:07 PM CDT
Nautical Twilight 5:53 AM CDT 8:41 PM CDT
Astronomical Twilight 5:18 AM CDT 9:17 PM CDT
Moon No Moon Rise 9:38 AM CDT (3/31)
Length of Visible Light 13h 39m
Length of Day
12h 42m
Waning Gibbous, 77% of the Moon is Illuminated
Mar 31
Waning Gibbous
Apr 2
Last Quarter
Apr 10
New
Apr 18
First Quarter
Apr 25
Full

Hourly Weather History & Observations

Time (CDT) Temp. Windchill Dew Point Humidity Pressure Visibility Wind Dir Wind Speed Gust Speed Precip Events Conditions
12:40 AM 35.6 °F 28.6 °F 33.8 °F 93% 29.89 in 3.0 mi NW 9.2 mph - N/A   Clear
12:51 AM 35.6 °F 28.6 °F 33.8 °F 93% 29.89 in 2.5 mi NW 9.2 mph - N/A   Clear
12:53 AM 35.1 °F 28.6 °F 33.1 °F 92% 29.90 in 2.5 mi NW 8.1 mph - N/A   Clear
1:05 AM 35.6 °F 28.6 °F 32.0 °F 87% 29.89 in 2.5 mi WNW 9.2 mph - N/A   Scattered Clouds
1:10 AM 35.6 °F 28.6 °F 33.8 °F 93% 29.89 in 1.8 mi NW 9.2 mph - N/A   Mostly Cloudy
1:21 AM 35.6 °F 28.0 °F 33.8 °F 93% 29.89 in 0.5 mi NW 10.4 mph - N/A Fog Fog
1:53 AM 34.0 °F 26.6 °F 33.1 °F 96% 29.90 in 0.2 mi WNW 9.2 mph - N/A Fog Fog
2:02 AM 33.8 °F 25.8 °F 33.8 °F 100% 29.89 in 0.5 mi WNW 10.4 mph - N/A Fog Fog
2:22 AM 33.8 °F 26.4 °F 33.8 °F 100% 29.89 in 1.2 mi WNW 9.2 mph - N/A   Overcast
2:48 AM 33.8 °F 26.4 °F 32.0 °F 93% 29.89 in 2.0 mi WNW 9.2 mph - N/A   Scattered Clouds
2:49 AM 33.1 °F 25.5 °F 30.9 °F 92% 29.90 in 2.0 mi WNW 9.2 mph - N/A   Scattered Clouds
3:01 AM 33.8 °F 27.7 °F 30.2 °F 87% 29.89 in 3.0 mi NW 6.9 mph - N/A   Partly Cloudy
3:53 AM 32.0 °F 23.6 °F 30.0 °F 92% 29.89 in 4.0 mi NW 10.4 mph - N/A   Clear
4:03 AM 32.0 °F 24.8 °F 28.4 °F 87% 29.88 in 4.0 mi WNW 8.1 mph - N/A   Scattered Clouds
4:14 AM 32.0 °F 22.1 °F 30.2 °F 93% 29.89 in 3.0 mi NW 13.8 mph - N/A   Mostly Cloudy
4:24 AM 32.0 °F 22.1 °F 30.2 °F 93% 29.89 in 2.5 mi WNW 13.8 mph - N/A   Overcast
4:33 AM 32.0 °F 22.5 °F 30.2 °F 93% 29.88 in 2.0 mi WNW 12.7 mph - N/A   Overcast
4:40 AM 32.0 °F 23.0 °F 30.2 °F 93% 29.88 in 1.5 mi WNW 11.5 mph - N/A   Overcast
4:53 AM 32.0 °F 23.0 °F 30.0 °F 92% 29.88 in 0.8 mi WNW 11.5 mph - N/A   Overcast
5:53 AM 32.0 °F 24.2 °F 30.0 °F 92% 29.86 in 0.5 mi West 9.2 mph - N/A Fog Fog
6:48 AM 32.0 °F 23.0 °F 30.2 °F 93% 29.86 in 1.2 mi WNW 11.5 mph - N/A   Overcast
6:53 AM 32.0 °F 23.0 °F 30.9 °F 96% 29.88 in 1.8 mi WNW 11.5 mph - N/A   Overcast
7:03 AM 32.0 °F 21.6 °F 30.2 °F 93% 29.87 in 2.0 mi WNW 15.0 mph - N/A   Overcast
7:12 AM 32.0 °F 22.1 °F 30.2 °F 93% 29.87 in 1.8 mi WNW 13.8 mph - N/A   Overcast
7:30 AM 33.8 °F 25.8 °F 30.2 °F 87% 29.87 in 2.0 mi WNW 10.4 mph - N/A   Overcast
7:53 AM 33.1 °F 24.9 °F 30.9 °F 92% 29.89 in 2.0 mi WNW 10.4 mph - N/A   Overcast
8:06 AM 33.8 °F 26.4 °F 30.2 °F 87% 29.87 in 1.8 mi West 9.2 mph - N/A   Mostly Cloudy
8:19 AM 33.8 °F 26.4 °F 30.2 °F 87% 29.87 in 2.0 mi West 9.2 mph - N/A   Scattered Clouds
8:48 AM 35.6 °F 27.1 °F 32.0 °F 87% 29.87 in 3.0 mi West 12.7 mph - N/A   Clear
8:53 AM 36.0 °F 28.0 °F 32.0 °F 86% 29.89 in 4.0 mi West 11.5 mph - N/A   Clear
9:53 AM 37.9 °F 28.9 °F 32.0 °F 79% 29.88 in 10.0 mi WNW 16.1 mph - N/A   Clear
10:53 AM 39.9 °F 29.0 °F 30.9 °F 70% 29.90 in 10.0 mi WNW 26.5 mph 32.2 mph N/A   Scattered Clouds
11:06 AM 39.2 °F 28.7 °F 30.2 °F 70% 29.89 in 10.0 mi NW 23.0 mph 33.4 mph N/A   Mostly Cloudy
11:53 AM 36.0 °F 24.2 °F 28.9 °F 76% 29.93 in 7.0 mi NW 24.2 mph 31.1 mph N/A   Overcast
12:53 PM 37.0 °F 25.1 °F 28.0 °F 70% 29.93 in 10.0 mi NW 26.5 mph 35.7 mph N/A   Overcast
1:24 PM 39.2 °F 27.8 °F 28.4 °F 65% 29.91 in 10.0 mi NW 27.6 mph 33.4 mph N/A   Mostly Cloudy
1:53 PM 41.0 °F 29.8 °F 27.0 °F 57% 29.92 in 10.0 mi NW 29.9 mph 36.8 mph N/A   Clear
2:53 PM 39.9 °F 28.8 °F 26.1 °F 58% 29.93 in 10.0 mi NW 27.6 mph 36.8 mph N/A   Scattered Clouds
3:53 PM 39.0 °F 29.0 °F 25.0 °F 57% 29.94 in 10.0 mi NW 20.7 mph 33.4 mph N/A   Partly Cloudy
4:53 PM 37.9 °F 26.6 °F 23.0 °F 55% 29.96 in 10.0 mi NW 25.3 mph 33.4 mph N/A   Clear
5:53 PM 36.0 °F 24.2 °F 21.0 °F 55% 29.98 in 10.0 mi NNW 24.2 mph 29.9 mph N/A   Clear
6:53 PM 33.1 °F 22.2 °F 21.0 °F 61% 30.00 in 10.0 mi NW 17.3 mph - N/A   Scattered Clouds
7:53 PM 30.9 °F 18.4 °F 21.0 °F 67% 30.02 in 10.0 mi NW 20.7 mph - N/A   Scattered Clouds
8:53 PM 28.9 °F 15.4 °F 19.0 °F 67% 30.04 in 10.0 mi NW 21.9 mph 29.9 mph N/A   Clear
9:53 PM 28.0 °F 15.3 °F 19.0 °F 69% 30.08 in 10.0 mi NW 18.4 mph 26.5 mph N/A   Partly Cloudy
10:17 PM 28.4 °F 15.8 °F 19.4 °F 69% 30.07 in 10.0 mi NW 18.4 mph 24.2 mph N/A   Mostly Cloudy
10:53 PM 27.0 °F 13.2 °F 18.0 °F 69% 30.10 in 10.0 mi NNW 20.7 mph 28.8 mph N/A   Overcast
11:53 PM 26.1 °F 11.3 °F 17.1 °F 69% 30.12 in 10.0 mi NNW 23.0 mph 28.8 mph N/A   Overcast